Flag for Uruguay Weather past 2 weeks in Melo, Uruguay

Now
59 °F

Drizzle. Fog.


Feels Like: 57 °F
Forecast: 43 / 53 °F
Wind: 10 mph from Southwest

Location: Pelotas Airport

Current Time: Jul 24, 2014 at 12:27:09 AM

Latest Report: Jul 24, 2014 at 12:00 AM


Visibility: 3 mi

Pressure: 29.77 "Hg

Humidity: 100%

Dew point: 59 °F

Location of MeloLocation

Historic Weather in Melo — Graph

°F

Melo temperature yesterday

Maximum temperature yesterday: 64 °F (at 10:00 AM)
Minimum temperature yesterday: 59 °F (at 7:00 PM)
Average temperature yesterday: 62 °F

Past Weeks' High & Low Weather Summary

 TemperatureHumidityPressure
High73 °F (Jul 14, 1:00 PM)100% (Jul 8, 11:00 PM)30.36 "Hg (Jul 8, 11:00 PM)
Low46 °F (Jul 21, 3:00 AM)43% (Jul 18, 4:00 PM)29.65 "Hg (Jul 23, 4:00 PM)
Average60 °F89%30.12 "Hg
* Reported Jul 8 11:00 PM — Jul 23 11:00 PM, Melo, Weather by CustomWeather, © 2014

Note: Actual official high and low records may vary slightly from our data, if they occured in-between our weather recording intervals... More about our weather records

Advertising

Melo weather history for previous 24 hours

 ConditionsComfort  
Time TempWeatherWind HumidityBarometerVisibility
11:00 PM
Jul 23
59 °FDrizzle. Low clouds.9 mph100%29.77 "Hg4 mi
10:00 PM59 °FLow clouds.7 mph94%29.74 "Hg4 mi
9:00 PM59 °FLight rain. Low clouds.12 mph100%29.74 "Hg3 mi
8:00 PM59 °FLight rain. Low clouds.9 mph100%29.71 "Hg3 mi
7:00 PM59 °FLight rain. Low clouds.7 mph94%29.68 "Hg2 mi
6:00 PM61 °FLight rain. Fog.9 mph94%29.68 "Hg1 mi
5:00 PM64 °FLight rain. Fog.6 mph94%N/A2 mi
4:00 PM64 °FMore clouds than sun.12 mph94%29.65 "Hg6 mi
3:00 PM64 °FMostly cloudy.16 mph94%29.68 "Hg6 mi
2:00 PM64 °FLight rain. Mostly cloudy.14 mph94%29.68 "Hg4 mi
1:00 PM64 °FLight rain. Fog.6 mph100%29.77 "Hg3 mi
12:00 PM64 °FOvercast.8 mph94%29.80 "HgN/A
11:00 AM64 °FMore clouds than sun.5 mph94%29.83 "HgN/A
10:00 AM64 °FMore clouds than sun.3 mph94%29.83 "HgN/A
9:00 AM63 °FMostly cloudy.3 mph100%29.83 "HgN/A
8:00 AM63 °FFog.8 mph100%29.80 "Hg3 mi
7:00 AM63 °FFog.7 mph94%29.80 "Hg3 mi
6:00 AM63 °FThunderstorms. Mostly cloudy.No wind94%N/A2 mi
5:00 AM63 °FLight rain. Mostly cloudy.2 mph94%29.80 "Hg4 mi
3:00 AM61 °FLow clouds.3 mph100%29.83 "HgN/A
2:00 AM61 °FThunderstorms. Mostly cloudy.8 mph100%N/A3 mi
1:00 AM61 °FThunderstorms. Overcast.9 mph100%29.83 "Hg3 mi
12:00 AM61 °FLight rain. Fog.12 mph100%29.86 "Hg3 mi
Weather by CustomWeather, © 2014

See weather overviewHow to use our weather pages